RH
56 54 58 62 74 81 86 94 96 88 83 77 70 66 61 55 56 72 83 84 78 73 67 75 76 74 78 79 80 77 76 74 72 73 74 81 83 80 80 80 80 80 81
57 57 58 61 68 74 81 86 95 93 88 85 74 57 54 57 61 75 82 88 80 77 75 71 73 73 74 77 79 78 76 75 72 71 72 76 82 81 80 81 80 80 81
55 57 61 66 71 74 81 87 89 91 94 88 83 60 54 51 64 74 77 88 85 80 78 66 68 70 71 74 78 79 75 74 72 70 70 71 81 81 80 79 79 80 81
52 58 64 66 70 76 76 82 88 96 95 93 92 94 80 64 58 69 71 78 80 74 80 78 74 70 71 69 75 79 75 75 72 70 70 68 77 79 79 78 78 78 80
55 57 59 64 67 74 79 80 80 91 95 93 93 97 96 88 62 52 62 71 77 76 79 82 80 80 77 71 70 76 75 73 70 70 68 70 76 72 73 74 75 74 77
55 58 59 60 67 73 78 79 81 81 92 93 90 92 93 92 75 67 63 63 69 70 73 82 88 92 86 79 73 75 75 71 69 68 69 70 70 65 68 71 70 70 71
56 58 61 61 66 71 73 72 76 81 85 90 91 95 97 91 77 73 68 68 69 71 82 94 97 88 80 79 80 79 77 70 68 68 71 71 71 69 70 69 68 67 70
60 53 58 64 68 74 74 76 82 88 86 86 95 94 98 98 94 75 70 64 72 78 84 88 87 79 77 78 90 84 82 71 66 67 70 74 70 69 71 68 67 74 71
60 61 58 62 66 70 77 76 79 80 89 84 93 90 99 96 93 91 73 74 75 84 86 84 85 75 72 75 84 87 88 81 71 70 69 70 68 66 74 74 73 72 71
59 61 62 60 65 69 74 76 70 78 83 85 80 90 67 84 89 99 94 75 70 78 78 80 79 76 70 73 85 88 87 84 73 65 75 71 69 66 70 73 75 75 76
59 60 61 62 64 69 71 74 76 78 78 83 82 89 87 73 65 79 92 91 78 72 71 70 69 68 63 75 80 84 86 84 74 67 73 74 75 66 71 69 64 65 65
68 65 64 64 65 68 71 73 76 76 77 80 79 76 93 78 78 71 76 83 75 78 72 72 71 73 76 81 77 85 88 86 81 74 66 66 72 79 70 65 64 64 63
73 69 66 70 71 70 70 72 75 78 80 83 79 75 71 86 66 63 67 80 78 87 73 85 59 68 71 89 89 86 88 88 84 78 67 65 70 74 75 61 68 67 58
75 70 69 68 67 65 66 70 76 77 78 84 85 81 73 81 67 62 64 76 85 79 80 89 90 60 65 85 88 89 84 90 87 83 78 71 78 79 78 75 72 71 71
70 71 70 70 69 69 65 68 76 77 77 80 86 84 81 82 77 59 59 66 75 88 85 75 93 79 58 84 85 84 78 88 84 86 83 84 83 83 79 80 79 79 79
76 75 73 71 69 68 68 65 69 70 72 81 81 83 76 72 84 64 66 65 60 66 80 68 76 83 62 76 88 81 79 90 87 85 84 88 88 88 85 84 85 82 82
80 78 74 72 71 69 68 72 70 68 75 74 79 83 80 73 88 68 66 70 63 61 71 73 68 68 71 65 86 82 82 82 80 87 85 85 90 88 85 83 87 86 82
84 84 82 78 72 67 65 66 73 66 70 77 79 82 79 69 82 74 67 72 65 60 63 76 72 72 68 64 79 87 81 72 73 86 85 87 88 89 88 86 89 87 86
90 85 85 88 82 77 71 68 70 72 71 72 78 84 78 73 85 79 74 73 65 57 61 71 75 70 69 70 80 79 83 82 76 82 88 85 87 89 90 88 88 90 88
95 92 92 93 95 92 82 74 70 75 77 76 79 83 78 81 86 76 75 74 66 63 64 73 74 76 76 74 74 82 85 84 88 77 79 79 82 88 90 92 90 90 89
94 96 95 91 95 94 93 94 83 81 83 82 83 78 77 80 90 76 76 78 73 71 69 74 79 78 82 84 81 82 84 82 85 83 88 79 82 80 85 93 93 93 91
92 94 96 96 95 93 97 96 95 94 85 86 83 80 78 87 91 83 80 85 78 78 74 74 76 79 79 80 77 80 84 88 92 80 84 90 83 83 80 89 86 93 94
96 96 96 96 95 96 98 91 88 87 86 81 82 81 78 75 92 87 90 90 88 84 73 65 72 72 76 74 75 81 82 83 81 82 78 86 77 75 81 79 90 93 94
97 97 96 96 96 95 97 93 93 93 86 86 85 80 78 90 88 89 90 91 88 84 77 66 63 64 64 67 70 72 75 76 80 88 76 85 74 76 73 80 87 90 91
96 96 96 96 96 95 94 96 93 95 98 94 96 93 94 93 92 91 89 93 90 89 88 78 71 73 76 75 69 72 83 86 91 86 83 85 88 83 81 82 81 88 89
92 96 96 97 93 96 91 96 97 99 98 93 95 94 98 99 98 94 86 89 94 90 86 85 81 78 78 77 83 68 76 85 85 89 89 86 94 94 97 88 83 80 88
Wind_Speed
6 7 7 6 6 8 8 8 5 4 8 9 7 8 8 7 5 4 4 11 10 9 9 7 9 11 13 12 10 14 13 12 12 11 10 10 10 13 13 14 15 15 16
5 6 7 7 7 7 7 9 8 5 5 5 9 11 9 6 6 7 5 5 10 9 11 9 10 11 13 11 11 13 14 13 12 11 10 10 9 11 13 13 14 14 14
5 6 6 6 7 7 10 9 10 10 5 6 8 9 10 6 8 9 7 4 6 9 11 10 7 7 11 10 11 13 15 14 11 10 10 9 9 13 12 12 13 14 13
9 7 6 6 7 7 7 7 8 9 7 7 7 3 3 2 6 9 7 6 5 4 5 10 9 9 9 10 10 14 14 14 12 11 9 8 9 13 13 12 12 12 13
8 7 7 6 8 7 7 7 8 9 11 8 7 5 3 2 5 8 8 10 8 6 4 7 8 6 9 11 12 13 15 14 13 12 10 10 10 12 11 10 11 10 11
9 8 7 9 7 6 6 6 9 9 11 11 9 6 6 6 6 4 6 9 9 8 7 7 5 4 8 12 12 13 16 15 13 12 11 11 11 11 10 10 10 10 10
10 10 7 8 8 7 8 9 8 10 11 14 9 7 4 4 7 7 5 4 9 6 6 6 4 4 6 12 12 13 16 15 15 12 9 14 14 14 13 11 11 10 10
8 9 9 9 9 7 8 8 7 6 8 10 9 9 7 3 4 6 7 7 6 6 6 7 7 7 5 4 6 10 16 17 16 14 12 12 13 11 13 14 14 13 14
10 10 11 10 11 9 8 9 8 9 8 13 15 7 6 6 10 3 8 8 8 6 5 7 7 10 9 6 9 7 13 14 17 16 15 14 13 13 11 12 15 15 14
10 11 12 12 12 9 10 9 9 8 8 13 12 14 13 9 11 6 3 8 9 9 8 7 8 9 9 7 9 11 11 12 14 12 17 17 17 14 14 16 17 15 13
11 11 12 12 12 10 11 12 12 11 9 12 11 13 14 9 14 9 9 9 5 9 9 10 9 9 10 8 8 8 14 11 13 17 15 13 17 17 16 15 15 13 12
8 10 12 12 12 13 13 12 13 15 13 13 13 15 14 11 13 11 9 13 14 9 8 6 7 5 7 6 9 13 15 14 14 17 19 17 15 14 17 16 13 16 14
9 10 11 11 10 13 14 14 15 16 15 14 16 15 16 19 12 11 12 14 13 4 5 4 9 7 8 6 6 13 17 15 15 17 19 21 18 15 13 14 15 14 14
11 14 14 14 15 16 15 15 14 14 15 15 19 17 15 16 15 13 13 15 12 9 6 6 4 10 10 9 8 14 11 16 15 14 15 16 13 13 13 14 16 13 15
12 16 16 17 17 17 19 18 14 18 16 16 16 17 17 18 19 16 14 17 16 11 14 10 5 6 9 10 11 11 11 15 16 14 13 11 14 14 12 13 13 15 13
17 18 18 18 19 19 19 21 18 20 20 15 14 19 20 18 21 16 15 16 14 13 13 12 10 7 12 11 13 13 12 16 17 15 14 13 13 15 14 12 14 14 13
17 18 19 20 21 21 20 20 22 22 21 21 19 19 22 24 19 18 16 15 14 13 12 12 13 10 12 14 12 13 10 10 11 17 17 15 14 14 16 14 13 14 15
18 19 19 20 21 22 23 24 22 22 24 25 23 23 24 18 23 22 17 20 17 15 12 19 14 12 15 15 13 14 12 11 11 16 18 17 14 15 15 16 15 16 14
17 17 19 20 21 22 23 25 23 24 25 25 22 23 22 21 23 20 19 19 16 14 12 11 11 11 13 12 10 12 12 11 10 14 18 18 17 16 16 17 16 15 16
15 16 16 17 19 21 22 24 25 24 24 23 23 25 25 25 33 26 21 22 18 16 13 12 12 13 12 14 12 12 10 8 10 9 14 14 16 17 16 17 18 17 17
14 15 15 16 16 16 14 23 24 25 26 23 27 24 24 30 38 27 17 19 19 15 13 13 13 11 12 12 14 10 11 9 9 9 8 11 9 10 11 14 13 19 19
15 15 15 15 18 13 22 24 26 24 25 25 23 20 21 26 34 35 31 26 23 19 16 12 12 14 16 15 14 13 11 10 8 8 10 9 10 11 11 10 17 17 21
15 16 15 16 19 18 28 22 22 17 18 20 18 17 22 20 27 23 25 26 22 21 21 21 19 18 17 18 16 15 14 14 11 8 12 10 10 12 10 11 20 21 21
12 13 14 16 18 16 30 16 2 9 7 12 17 26 28 25 23 24 22 21 21 19 19 15 18 18 17 20 21 19 20 18 8 5 14 10 11 12 11 11 18 23 26
11 13 13 15 19 18 34 36 23 14 10 5 6 17 19 21 26 28 22 21 20 19 14 14 18 18 16 22 20 12 11 11 7 7 10 6 6 10 10 11 11 22 25
11 11 14 14 22 18 36 42 29 8 10 10 15 16 29 9 22 27 22 19 16 15 15 12 5 13 16 18 20 17 14 14 10 6 7 10 6 6 4 9 10 10 11
Wind_Direction
337 341 331 331 334 330 329 320 283 222 196 180 167 188 219 235 176 142 146 154 160 162 165 158 157 134 124 124 131 125 117 110 103 97 89 74 90 92 88 86 86 82 85
326 332 333 327 324 326 325 320 318 245 210 210 191 181 221 222 136 141 136 163 152 163 164 162 156 146 126 132 146 140 126 120 113 106 102 88 87 100 96 90 89 85 84
326 323 323 326 323 320 331 328 313 304 193 194 219 206 194 220 140 144 144 156 147 160 181 164 173 149 142 146 149 153 139 125 125 120 116 107 97 103 103 99 92 88 89
338 332 327 316 315 317 315 319 316 315 230 197 191 193 225 166 154 151 149 155 161 170 180 179 182 193 159 164 165 162 142 136 139 135 132 136 135 117 104 106 100 96 91
326 323 317 314 317 311 311 318 306 303 313 206 199 171 191 160 247 171 163 164 173 177 163 196 177 209 203 187 182 174 153 152 147 147 150 146 156 111 114 113 116 113 105
323 319 311 306 301 301 303 304 304 302 290 279 186 168 191 201 178 189 182 164 176 180 174 167 185 195 209 198 193 181 164 159 151 153 167 151 140 143 146 140 132 125 122
309 307 299 294 296 290 291 295 297 300 300 301 181 182 202 207 182 170 168 179 167 170 160 150 172 175 187 193 197 175 167 156 157 161 165 168 165 162 154 154 156 144 140
310 304 310 313 307 301 296 295 302 298 277 267 255 165 177 189 221 199 167 165 172 162 158 155 166 172 165 173 168 185 178 167 164 166 168 152 143 149 149 155 154 148 143
304 298 295 293 295 293 287 284 281 274 281 291 289 215 162 194 153 201 194 149 164 167 168 173 169 180 185 180 163 175 171 175 163 178 174 169 166 166 159 162 173 150 138
282 280 280 279 279 279 273 271 266 259 262 270 296 275 188 142 165 155 263 155 158 176 182 185 187 192 185 179 171 168 180 179 182 180 179 178 169 177 172 145 132 127 130
275 272 271 270 269 270 270 268 265 257 247 261 260 269 271 174 189 157 172 187 143 185 192 191 184 192 197 165 171 171 178 187 192 182 172 164 175 178 169 162 155 143 144
278 269 269 266 269 268 269 266 261 254 247 242 247 265 272 224 179 173 154 193 180 165 178 191 181 180 175 163 173 171 178 186 191 191 191 184 171 182 174 165 169 165 179
281 275 271 266 262 262 263 263 260 256 252 250 255 245 249 272 191 186 165 174 182 150 172 198 190 178 182 174 167 167 175 190 191 196 196 199 197 186 187 184 181 170 176
282 281 275 267 262 261 262 261 263 261 248 248 254 260 265 270 218 183 175 166 175 178 160 182 211 189 177 175 169 176 178 185 185 190 209 192 195 185 198 191 182 187 176
276 273 268 265 261 255 256 258 256 253 251 251 247 250 245 249 258 190 181 175 172 167 192 187 178 212 178 169 175 178 179 186 189 189 194 200 188 188 189 197 185 178 180
277 273 269 265 262 258 252 250 249 250 248 250 243 246 242 252 278 191 187 180 187 171 184 188 191 172 183 172 174 177 184 179 191 192 192 200 188 181 189 183 181 178 180
281 278 273 268 262 256 249 244 243 246 245 240 231 241 246 245 260 192 182 181 190 181 175 190 185 183 178 175 177 177 175 184 194 193 192 196 188 185 190 186 185 180 181
281 273 268 262 259 256 252 247 243 242 241 243 239 233 236 243 250 201 180 177 187 186 165 173 173 179 184 186 170 175 181 190 190 198 190 184 191 190 192 184 188 186 187
281 278 271 261 254 248 246 245 241 239 238 240 243 243 246 255 266 199 178 175 177 175 169 162 169 175 183 175 165 183 180 190 195 187 192 187 189 191 190 186 188 190 190
292 288 284 281 270 252 239 239 237 236 233 232 227 231 231 237 257 177 174 174 173 170 168 163 167 173 175 180 178 176 185 182 188 186 201 195 193 194 195 193 191 195 198
305 300 301 300 297 282 249 233 230 233 236 227 230 222 224 231 247 176 168 172 168 167 170 164 164 172 174 172 180 177 191 187 190 185 186 201 196 197 209 203 202 201 200
318 315 310 316 313 295 284 282 233 225 235 241 228 219 232 242 230 173 173 171 171 168 172 169 166 174 176 175 178 177 182 184 188 192 183 198 192 204 202 204 208 202 205
318 320 317 325 320 308 306 298 248 223 221 228 226 228 233 246 178 170 174 171 176 177 173 173 176 181 174 175 172 179 186 188 190 188 184 199 196 215 205 209 204 202 201
320 322 320 324 322 317 337 351 147 217 230 248 261 245 262 201 171 168 175 175 183 187 187 182 188 183 179 175 177 179 182 188 189 152 181 205 203 216 210 216 199 206 206
325 327 327 330 334 329 356 28 30 13 350 226 212 197 169 161 170 173 174 176 180 190 192 192 174 174 174 179 176 164 176 171 185 192 188 175 193 208 212 214 215 208 207
334 331 340 338 342 340 12 26 24 10 269 52 53 52 46 61 158 177 179 177 178 186 183 187 163 177 172 179 174 177 171 178 180 179 187 194 166 153 217 214 208 211 211